Time,TemperatureF,DewpointF,PressureIn,WindDirection,WindDirectionDegrees,WindSpeedMPH,WindSpeedGustMPH,Humidity,HourlyPrecipIn,Conditions,Clouds,dailyrainin,SolarRadiationWatts/m^2,SoftwareType,DateUTC
2013-07-27 00:02:00,56.0,44.0,-100.00,SE,132,6.0,11.0,65,0.00,,,0.00,0.000000,,2013-07-27 06:02:00,
2013-07-27 00:12:00,56.0,44.0,-100.00,SE,132,6.0,11.0,65,0.00,,,0.00,0.000000,,2013-07-27 06:12:00,
2013-07-27 00:22:00,56.0,44.0,-100.00,SE,132,6.0,11.0,65,0.00,,,0.00,0.000000,,2013-07-27 06:22:00,
2013-07-27 00:52:00,55.0,43.0,-100.00,ESE,119,6.0,14.0,65,0.00,,,0.00,0.000000,,2013-07-27 06:52:00,
2013-07-27 01:02:00,55.0,43.0,-100.00,ESE,119,6.0,14.0,65,0.00,,,0.00,0.000000,,2013-07-27 07:02:00,
2013-07-27 01:12:00,55.0,43.0,-100.00,ESE,119,6.0,14.0,65,0.00,,,0.00,0.000000,,2013-07-27 07:12:00,
2013-07-27 01:22:00,55.0,43.0,-100.00,ESE,119,6.0,14.0,65,0.00,,,0.00,0.000000,,2013-07-27 07:22:00,
2013-07-27 01:52:00,53.0,41.0,-100.00,SE,124,8.0,15.0,64,0.00,,,0.00,0.000000,,2013-07-27 07:52:00,
2013-07-27 02:02:00,53.0,41.0,-100.00,SE,124,8.0,15.0,64,0.00,,,0.00,0.000000,,2013-07-27 08:02:00,
2013-07-27 02:12:00,53.0,41.0,-100.00,SE,124,8.0,15.0,64,0.00,,,0.00,0.000000,,2013-07-27 08:12:00,
2013-07-27 02:22:00,53.0,41.0,-100.00,SE,124,8.0,15.0,64,0.00,,,0.00,0.000000,,2013-07-27 08:22:00,
2013-07-27 02:53:00,54.0,42.0,-100.00,SE,140,8.0,14.0,64,0.00,,,0.00,0.000000,,2013-07-27 08:53:00,
2013-07-27 03:02:00,54.0,42.0,-100.00,SE,140,8.0,14.0,64,0.00,,,0.00,0.000000,,2013-07-27 09:02:00,
2013-07-27 03:12:00,54.0,42.0,-100.00,SE,140,8.0,14.0,64,0.00,,,0.00,0.000000,,2013-07-27 09:12:00,
2013-07-27 03:22:00,54.0,42.0,-100.00,SE,140,8.0,14.0,64,0.00,,,0.00,0.000000,,2013-07-27 09:22:00,
2013-07-27 03:52:00,51.0,41.0,-100.00,SSE,149,6.0,14.0,68,0.00,,,0.00,0.000000,,2013-07-27 09:52:00,
2013-07-27 04:02:00,51.0,41.0,-100.00,SSE,149,6.0,14.0,68,0.00,,,0.00,0.000000,,2013-07-27 10:02:00,
2013-07-27 04:12:00,51.0,41.0,-100.00,SSE,149,6.0,14.0,68,0.00,,,0.00,0.000000,,2013-07-27 10:12:00,
2013-07-27 04:22:00,51.0,41.0,-100.00,SSE,149,6.0,14.0,68,0.00,,,0.00,0.000000,,2013-07-27 10:22:00,
2013-07-27 04:52:00,52.0,42.0,-100.00,SSE,155,7.0,16.0,69,0.00,,,0.00,0.000000,,2013-07-27 10:52:00,
2013-07-27 05:02:00,52.0,42.0,-100.00,SSE,155,7.0,16.0,69,0.00,,,0.00,0.000000,,2013-07-27 11:02:00,
2013-07-27 05:12:00,52.0,42.0,-100.00,SSE,155,7.0,16.0,69,0.00,,,0.00,0.000000,,2013-07-27 11:12:00,
2013-07-27 05:22:00,52.0,42.0,-100.00,SSE,155,7.0,16.0,69,0.00,,,0.00,0.000000,,2013-07-27 11:22:00,
2013-07-27 05:53:00,49.0,41.0,-100.00,SE,141,4.0,13.0,75,0.00,,,0.00,0.000000,,2013-07-27 11:53:00,
2013-07-27 06:02:00,49.0,41.0,-100.00,SE,141,4.0,13.0,75,0.00,,,0.00,0.000000,,2013-07-27 12:02:00,
2013-07-27 06:12:00,49.0,41.0,-100.00,SE,141,4.0,13.0,75,0.00,,,0.00,0.000000,,2013-07-27 12:12:00,
2013-07-27 06:22:00,49.0,41.0,-100.00,SE,141,4.0,13.0,75,0.00,,,0.00,0.000000,,2013-07-27 12:22:00,
2013-07-27 06:52:00,52.0,42.0,-100.00,SE,142,6.0,12.0,69,0.00,,,0.00,35.000000,,2013-07-27 12:52:00,
2013-07-27 07:02:00,52.0,42.0,-100.00,SE,142,6.0,12.0,69,0.00,,,0.00,35.000000,,2013-07-27 13:02:00,
2013-07-27 07:12:00,52.0,42.0,-100.00,SE,142,6.0,12.0,69,0.00,,,0.00,35.000000,,2013-07-27 13:12:00,
2013-07-27 07:22:00,52.0,42.0,-100.00,SE,142,6.0,12.0,69,0.00,,,0.00,35.000000,,2013-07-27 13:22:00,
2013-07-27 07:53:00,57.0,42.0,-100.00,SE,146,11.0,20.0,58,0.00,,,0.00,199.000000,,2013-07-27 13:53:00,
2013-07-27 08:02:00,57.0,42.0,-100.00,SE,146,11.0,20.0,58,0.00,,,0.00,199.000000,,2013-07-27 14:02:00,
2013-07-27 08:12:00,57.0,42.0,-100.00,SE,146,11.0,20.0,58,0.00,,,0.00,199.000000,,2013-07-27 14:12:00,
2013-07-27 08:22:00,57.0,42.0,-100.00,SE,146,11.0,20.0,58,0.00,,,0.00,199.000000,,2013-07-27 14:22:00,
2013-07-27 08:54:00,62.0,44.0,-100.00,SE,138,11.0,21.0,52,0.00,,,0.00,394.000000,,2013-07-27 14:54:00,
2013-07-27 09:02:00,62.0,44.0,-100.00,SE,138,11.0,21.0,52,0.00,,,0.00,394.000000,,2013-07-27 15:02:00,
2013-07-27 09:12:00,62.0,44.0,-100.00,SE,138,11.0,21.0,52,0.00,,,0.00,394.000000,,2013-07-27 15:12:00,
2013-07-27 09:22:00,62.0,44.0,-100.00,SE,138,11.0,21.0,52,0.00,,,0.00,394.000000,,2013-07-27 15:22:00,
2013-07-27 09:53:00,64.0,43.0,-100.00,SE,137,12.0,23.0,47,0.00,,,0.00,595.000000,,2013-07-27 15:53:00,
2013-07-27 10:02:00,64.0,43.0,-100.00,SE,137,12.0,23.0,47,0.00,,,0.00,595.000000,,2013-07-27 16:02:00,
2013-07-27 10:12:00,64.0,43.0,-100.00,SE,137,12.0,23.0,47,0.00,,,0.00,595.000000,,2013-07-27 16:12:00,
2013-07-27 10:22:00,64.0,43.0,-100.00,SE,137,12.0,23.0,47,0.00,,,0.00,595.000000,,2013-07-27 16:22:00,
2013-07-27 10:54:00,68.0,45.0,-100.00,SE,145,13.0,23.0,43,0.00,,,0.00,776.000000,,2013-07-27 16:54:00,
2013-07-27 11:02:00,68.0,45.0,-100.00,SE,145,13.0,23.0,43,0.00,,,0.00,776.000000,,2013-07-27 17:02:00,
2013-07-27 11:12:00,68.0,45.0,-100.00,SE,145,13.0,23.0,43,0.00,,,0.00,776.000000,,2013-07-27 17:12:00,
2013-07-27 11:22:00,68.0,45.0,-100.00,SE,145,13.0,23.0,43,0.00,,,0.00,776.000000,,2013-07-27 17:22:00,
2013-07-27 11:54:00,71.0,46.0,-100.00,SE,146,12.0,21.0,41,0.00,,,0.00,922.000000,,2013-07-27 17:54:00,
2013-07-27 12:02:00,71.0,46.0,-100.00,SE,146,12.0,21.0,41,0.00,,,0.00,922.000000,,2013-07-27 18:02:00,
2013-07-27 12:12:00,71.0,46.0,-100.00,SE,146,12.0,21.0,41,0.00,,,0.00,922.000000,,2013-07-27 18:12:00,
2013-07-27 12:22:00,71.0,46.0,-100.00,SE,146,12.0,21.0,41,0.00,,,0.00,922.000000,,2013-07-27 18:22:00,
2013-07-27 12:53:00,72.0,45.0,-100.00,SSE,158,12.0,23.0,38,0.00,,,0.00,1021.000000,,2013-07-27 18:53:00,
2013-07-27 13:02:00,72.0,45.0,-100.00,SSE,158,12.0,23.0,38,0.00,,,0.00,1021.000000,,2013-07-27 19:02:00,
2013-07-27 13:12:00,72.0,45.0,-100.00,SSE,158,12.0,23.0,38,0.00,,,0.00,1021.000000,,2013-07-27 19:12:00,
2013-07-27 13:22:00,72.0,45.0,-100.00,SSE,158,12.0,23.0,38,0.00,,,0.00,1021.000000,,2013-07-27 19:22:00,
2013-07-27 13:53:00,76.0,47.0,-100.00,SE,133,11.0,26.0,36,0.00,,,0.00,1066.000000,,2013-07-27 19:53:00,
2013-07-27 14:02:00,76.0,47.0,-100.00,SE,133,11.0,26.0,36,0.00,,,0.00,1066.000000,,2013-07-27 20:02:00,
2013-07-27 14:12:00,76.0,47.0,-100.00,SE,133,11.0,26.0,36,0.00,,,0.00,1066.000000,,2013-07-27 20:12:00,
2013-07-27 14:22:00,76.0,47.0,-100.00,SE,133,11.0,26.0,36,0.00,,,0.00,1066.000000,,2013-07-27 20:22:00,
2013-07-27 14:52:00,78.0,47.0,-100.00,SE,142,11.0,22.0,34,0.00,,,0.00,1048.000000,,2013-07-27 20:52:00,
2013-07-27 15:03:00,78.0,47.0,-100.00,SE,142,11.0,22.0,34,0.00,,,0.00,1048.000000,,2013-07-27 21:03:00,
2013-07-27 15:12:00,78.0,47.0,-100.00,SE,142,11.0,22.0,34,0.00,,,0.00,1048.000000,,2013-07-27 21:12:00,
2013-07-27 15:22:00,78.0,47.0,-100.00,SE,142,11.0,22.0,34,0.00,,,0.00,1048.000000,,2013-07-27 21:22:00,
2013-07-27 15:53:00,78.0,46.0,-100.00,SE,142,10.0,23.0,32,0.00,,,0.00,974.000000,,2013-07-27 21:53:00,
2013-07-27 16:02:00,78.0,46.0,-100.00,SE,142,10.0,23.0,32,0.00,,,0.00,974.000000,,2013-07-27 22:02:00,
2013-07-27 16:12:00,78.0,46.0,-100.00,SE,142,10.0,23.0,32,0.00,,,0.00,974.000000,,2013-07-27 22:12:00,
2013-07-27 16:53:00,78.0,45.0,-100.00,SE,127,11.0,23.0,31,0.00,,,0.00,848.000000,,2013-07-27 22:53:00,
2013-07-27 17:02:00,78.0,45.0,-100.00,SE,127,11.0,23.0,31,0.00,,,0.00,848.000000,,2013-07-27 23:02:00,
2013-07-27 17:12:00,78.0,45.0,-100.00,SE,127,11.0,23.0,31,0.00,,,0.00,848.000000,,2013-07-27 23:12:00,
2013-07-27 17:22:00,78.0,45.0,-100.00,SE,127,11.0,23.0,31,0.00,,,0.00,848.000000,,2013-07-27 23:22:00,
2013-07-27 17:53:00,78.0,46.0,-100.00,SE,127,11.0,22.0,32,0.00,,,0.00,681.000000,,2013-07-27 23:53:00,
2013-07-27 18:02:00,78.0,46.0,-100.00,SE,127,11.0,22.0,32,0.00,,,0.00,681.000000,,2013-07-28 00:02:00,
2013-07-27 18:12:00,78.0,46.0,-100.00,SE,127,11.0,22.0,32,0.00,,,0.00,681.000000,,2013-07-28 00:12:00,
2013-07-27 18:22:00,78.0,46.0,-100.00,SE,127,11.0,22.0,32,0.00,,,0.00,681.000000,,2013-07-28 00:22:00,
2013-07-27 18:53:00,79.0,47.0,-100.00,SE,132,9.0,20.0,33,0.00,,,0.00,485.000000,,2013-07-28 00:53:00,
2013-07-27 19:02:00,79.0,47.0,-100.00,SE,132,9.0,20.0,33,0.00,,,0.00,485.000000,,2013-07-28 01:02:00,
2013-07-27 19:12:00,79.0,47.0,-100.00,SE,132,9.0,20.0,33,0.00,,,0.00,485.000000,,2013-07-28 01:12:00,
2013-07-27 19:22:00,79.0,47.0,-100.00,SE,132,9.0,20.0,33,0.00,,,0.00,485.000000,,2013-07-28 01:22:00,
2013-07-27 19:53:00,76.0,47.0,-100.00,SE,133,10.0,21.0,36,0.00,,,0.00,152.000000,,2013-07-28 01:53:00,
2013-07-27 20:02:00,76.0,47.0,-100.00,SE,133,10.0,21.0,36,0.00,,,0.00,152.000000,,2013-07-28 02:02:00,
2013-07-27 20:12:00,76.0,47.0,-100.00,SE,133,10.0,21.0,36,0.00,,,0.00,152.000000,,2013-07-28 02:12:00,
2013-07-27 20:22:00,76.0,47.0,-100.00,SE,133,10.0,21.0,36,0.00,,,0.00,152.000000,,2013-07-28 02:22:00,
2013-07-27 20:53:00,69.0,46.0,-100.00,SE,130,6.0,20.0,43,0.00,,,0.00,24.000000,,2013-07-28 02:53:00,
2013-07-27 21:02:00,69.0,46.0,-100.00,SE,130,6.0,20.0,43,0.00,,,0.00,24.000000,,2013-07-28 03:02:00,
2013-07-27 21:12:00,69.0,46.0,-100.00,SE,130,6.0,20.0,43,0.00,,,0.00,24.000000,,2013-07-28 03:12:00,
2013-07-27 21:22:00,69.0,46.0,-100.00,SE,130,6.0,20.0,43,0.00,,,0.00,24.000000,,2013-07-28 03:22:00,
2013-07-27 21:53:00,66.0,45.0,-100.00,SE,129,7.0,14.0,46,0.00,,,0.00,2.000000,,2013-07-28 03:53:00,
2013-07-27 22:02:00,66.0,45.0,-100.00,SE,129,7.0,14.0,46,0.00,,,0.00,2.000000,,2013-07-28 04:02:00,
2013-07-27 22:12:00,66.0,45.0,-100.00,SE,129,7.0,14.0,46,0.00,,,0.00,2.000000,,2013-07-28 04:12:00,
2013-07-27 22:22:00,66.0,45.0,-100.00,SE,129,7.0,14.0,46,0.00,,,0.00,2.000000,,2013-07-28 04:22:00,
2013-07-27 22:53:00,62.0,42.0,-100.00,SE,134,6.0,14.0,47,0.00,,,0.00,0.000000,,2013-07-28 04:53:00,
2013-07-27 23:02:00,62.0,42.0,-100.00,SE,134,6.0,14.0,47,0.00,,,0.00,0.000000,,2013-07-28 05:02:00,
2013-07-27 23:12:00,62.0,42.0,-100.00,SE,134,6.0,14.0,47,0.00,,,0.00,0.000000,,2013-07-28 05:12:00,
2013-07-27 23:22:00,62.0,42.0,-100.00,SE,134,6.0,14.0,47,0.00,,,0.00,0.000000,,2013-07-28 05:22:00,
2013-07-27 23:43:00,61.0,41.0,-100.00,SE,134,9.0,17.0,47,0.00,,,0.00,0.000000,,2013-07-28 05:43:00,
2013-07-27 23:53:00,61.0,41.0,-100.00,SE,134,9.0,17.0,47,0.00,,,0.00,0.000000,,2013-07-28 05:53:00,